When you browse on this site, cookies collect data to enhance your experience and personalize the content and advertising you see.
Visit our Privacy Policy to learn more. By continuing to use the site, you agree to this use of cookies and data.
  • en Suisse
  • Liste des pays
  • À 7 jours
  • Température de l'eau
  • Carte satellitaire
  • Carte météo
  • Widgets météo
  • user-avatar
    Se connecter

    Météo par heure à Tolstoi

    Ce jour, 17 Juillet, Mercredi

    Heure Température Précipitation Vent Pression Humidité
    00:00 +18°C° 0 mm 1 m/s 745 mmHg 89%
    01:00 +18°C° 0 mm 1 m/s 745 mmHg 90%
    02:00 +16°C° 0 mm 2 m/s 745 mmHg 88%
    03:00 +17°C° 0 mm 2 m/s 745 mmHg 87%
    04:00 +17°C° 0 mm 2 m/s 746 mmHg 86%
    05:00 +17°C° 0 mm 2 m/s 746 mmHg 85%
    06:00 +19°C° 0 mm 2 m/s 746 mmHg 79%
    07:00 +20°C° 0 mm 2 m/s 746 mmHg 73%
    08:00 +22°C° 0 mm 3 m/s 746 mmHg 66%
    09:00 +24°C° 0 mm 3 m/s 746 mmHg 60%
    10:00 +25°C° 0 mm 3 m/s 746 mmHg 55%
    11:00 +27°C° 0 mm 3 m/s 746 mmHg 49%
    12:00 +27°C° 0.1 mm 3 m/s 746 mmHg 47%
    13:00 +27°C° 0.1 mm 3 m/s 746 mmHg 46%
    14:00 +28°C° 0.1 mm 3 m/s 745 mmHg 44%
    15:00 +27°C° 0 mm 3 m/s 746 mmHg 44%
    16:00 +27°C° 0 mm 3 m/s 746 mmHg 44%
    17:00 +27°C° 0 mm 3 m/s 746 mmHg 44%
    18:00 +25°C° 0 mm 2 m/s 746 mmHg 48%
    19:00 +24°C° 0 mm 2 m/s 746 mmHg 52%
    20:00 +22°C° 0 mm 1 m/s 746 mmHg 57%
    21:00 +21°C° 0 mm 1 m/s 746 mmHg 60%
    22:00 +20°C° 0 mm 1 m/s 746 mmHg 63%
    23:00 +19°C° 0 mm 1 m/s 746 mmHg 66%

    Demain, 18 Juillet, Jeudi

    Heure Température Précipitation Vent Pression Humidité
    00:00 +19°C° 0 mm 1 m/s 746 mmHg 68%
    01:00 +16°C° 0 mm 0 m/s 746 mmHg 70%
    02:00 +16°C° 0 mm 0 m/s 746 mmHg 72%
    03:00 +16°C° 0 mm 0 m/s 746 mmHg 72%
    04:00 +17°C° 0 mm 0 m/s 746 mmHg 71%
    05:00 +17°C° 0 mm 0 m/s 746 mmHg 71%
    06:00 +19°C° 0 mm 0 m/s 747 mmHg 64%
    07:00 +21°C° 0 mm 0 m/s 747 mmHg 57%
    08:00 +25°C° 0 mm 1 m/s 747 mmHg 50%
    09:00 +26°C° 0 mm 1 m/s 747 mmHg 46%
    10:00 +27°C° 0 mm 2 m/s 747 mmHg 43%
    11:00 +28°C° 0 mm 2 m/s 747 mmHg 39%
    12:00 +28°C° 0 mm 2 m/s 747 mmHg 39%
    13:00 +28°C° 0 mm 2 m/s 747 mmHg 40%
    14:00 +28°C° 0 mm 2 m/s 747 mmHg 40%
    15:00 +28°C° 0 mm 3 m/s 748 mmHg 41%
    16:00 +28°C° 0 mm 3 m/s 748 mmHg 42%
    17:00 +28°C° 0 mm 3 m/s 748 mmHg 43%
    18:00 +26°C° 0 mm 3 m/s 748 mmHg 48%
    19:00 +24°C° 0 mm 2 m/s 748 mmHg 52%
    20:00 +21°C° 0 mm 2 m/s 748 mmHg 56%
    21:00 +20°C° 0 mm 2 m/s 749 mmHg 59%
    22:00 +19°C° 0 mm 2 m/s 749 mmHg 62%
    23:00 +18°C° 0 mm 2 m/s 750 mmHg 65%

    Après-demain, 19 Juillet, Vendredi

    Heure Température Précipitation Vent Pression Humidité
    00:00 +18°C° 0 mm 2 m/s 750 mmHg 68%
    01:00 +18°C° 0 mm 1 m/s 750 mmHg 71%
    02:00 +16°C° 0 mm 1 m/s 750 mmHg 74%
    03:00 +16°C° 0 mm 1 m/s 750 mmHg 75%
    04:00 +18°C° 0 mm 1 m/s 750 mmHg 75%
    05:00 +18°C° 0 mm 1 m/s 751 mmHg 75%
    06:00 +20°C° 0 mm 1 m/s 751 mmHg 68%
    07:00 +21°C° 0 mm 2 m/s 751 mmHg 62%
    08:00 +24°C° 0 mm 2 m/s 752 mmHg 55%
    09:00 +25°C° 0 mm 2 m/s 752 mmHg 50%
    10:00 +26°C° 0 mm 3 m/s 752 mmHg 46%
    11:00 +28°C° 0 mm 3 m/s 752 mmHg 41%
    12:00 +28°C° 0 mm 3 m/s 752 mmHg 39%
    13:00 +29°C° 0 mm 3 m/s 752 mmHg 37%
    14:00 +29°C° 0 mm 4 m/s 751 mmHg 36%
    15:00 +29°C° 0 mm 4 m/s 751 mmHg 37%
    16:00 +28°C° 0 mm 4 m/s 751 mmHg 38%
    17:00 +28°C° 0 mm 3 m/s 751 mmHg 40%
    18:00 +26°C° 0 mm 3 m/s 752 mmHg 46%
    19:00 +24°C° 0 mm 3 m/s 752 mmHg 53%
    20:00 +21°C° 0 mm 2 m/s 752 mmHg 59%
    21:00 +20°C° 0 mm 2 m/s 753 mmHg 63%
    22:00 +19°C° 0 mm 2 m/s 753 mmHg 66%
    23:00 +18°C° 0 mm 2 m/s 753 mmHg 70%

    20 Juillet, Samedi

    Heure Température Précipitation Vent Pression Humidité
    00:00 +18°C° 0 mm 2 m/s 753 mmHg 71%
    01:00 +18°C° 0 mm 1 m/s 753 mmHg 72%
    02:00 +18°C° 0 mm 1 m/s 753 mmHg 73%
    03:00 +18°C° 0 mm 1 m/s 753 mmHg 72%
    04:00 +18°C° 0 mm 1 m/s 754 mmHg 72%
    05:00 +19°C° 0 mm 1 m/s 754 mmHg 72%
    06:00 +21°C° 0 mm 1 m/s 754 mmHg 65%
    07:00 +23°C° 0 mm 1 m/s 754 mmHg 58%
    08:00 +25°C° 0 mm 1 m/s 755 mmHg 51%
    09:00 +27°C° 0 mm 1 m/s 755 mmHg 46%
    10:00 +28°C° 0 mm 1 m/s 755 mmHg 41%
    11:00 +29°C° 0 mm 1 m/s 755 mmHg 36%
    12:00 +30°C° 0 mm 1 m/s 755 mmHg 34%
    13:00 +30°C° 0 mm 1 m/s 754 mmHg 31%
    14:00 +31°C° 0 mm 1 m/s 754 mmHg 29%
    15:00 +31°C° 0 mm 1 m/s 754 mmHg 30%
    16:00 +30°C° 0 mm 1 m/s 754 mmHg 30%
    17:00 +30°C° 0 mm 1 m/s 754 mmHg 30%
    18:00 +28°C° 0 mm 1 m/s 754 mmHg 35%
    19:00 +26°C° 0 mm 1 m/s 754 mmHg 41%
    20:00 +24°C° 0 mm 1 m/s 754 mmHg 46%
    21:00 +23°C° 0 mm 1 m/s 754 mmHg 49%
    22:00 +21°C° 0 mm 2 m/s 754 mmHg 53%
    23:00 +21°C° 0 mm 2 m/s 754 mmHg 56%

    21 Juillet, Dimanche

    Heure Température Précipitation Vent Pression Humidité
    00:00 +20°C° 0 mm 2 m/s 754 mmHg 57%
    01:00 +20°C° 0 mm 2 m/s 754 mmHg 58%
    02:00 +20°C° 0 mm 2 m/s 754 mmHg 59%
    03:00 +20°C° 0 mm 2 m/s 754 mmHg 61%
    04:00 +20°C° 0 mm 2 m/s 754 mmHg 62%
    05:00 +20°C° 0 mm 2 m/s 754 mmHg 63%
    06:00 +23°C° 0 mm 1 m/s 754 mmHg 56%
    07:00 +25°C° 0 mm 1 m/s 754 mmHg 50%
    08:00 +28°C° 0 mm 1 m/s 754 mmHg 43%
    09:00 +29°C° 0 mm 1 m/s 754 mmHg 40%
    10:00 +30°C° 0 mm 2 m/s 754 mmHg 37%
    11:00 +31°C° 0 mm 2 m/s 754 mmHg 34%
    12:00 +31°C° 0 mm 2 m/s 754 mmHg 34%
    13:00 +31°C° 0 mm 3 m/s 754 mmHg 35%
    14:00 +31°C° 0 mm 3 m/s 753 mmHg 36%
    15:00 +31°C° 0 mm 3 m/s 753 mmHg 37%
    16:00 +31°C° 0 mm 3 m/s 753 mmHg 38%
    17:00 +30°C° 0 mm 3 m/s 753 mmHg 39%
    18:00 +28°C° 0 mm 2 m/s 753 mmHg 44%
    19:00 +27°C° 0 mm 2 m/s 753 mmHg 50%
    20:00 +25°C° 0 mm 2 m/s 753 mmHg 55%
    21:00 +24°C° 0 mm 2 m/s 754 mmHg 60%
    22:00 +23°C° 0 mm 2 m/s 754 mmHg 65%
    23:00 +21°C° 0 mm 2 m/s 754 mmHg 69%

    22 Juillet, Lundi

    Heure Température Précipitation Vent Pression Humidité
    00:00 +22°C° 0 mm 1 m/s 753 mmHg 71%
    01:00 +21°C° 0 mm 1 m/s 753 mmHg 72%
    02:00 +21°C° 0 mm 1 m/s 753 mmHg 73%
    03:00 +21°C° 0 mm 1 m/s 753 mmHg 73%
    04:00 +21°C° 0 mm 1 m/s 753 mmHg 73%
    05:00 +20°C° 0 mm 2 m/s 753 mmHg 74%
    06:00 +23°C° 0 mm 2 m/s 753 mmHg 67%
    07:00 +25°C° 0 mm 2 m/s 753 mmHg 59%
    08:00 +27°C° 0 mm 2 m/s 753 mmHg 52%
    09:00 +29°C° 0 mm 3 m/s 753 mmHg 47%
    10:00 +30°C° 0 mm 3 m/s 753 mmHg 43%
    11:00 +33°C° 0 mm 3 m/s 753 mmHg 38%
    12:00 +33°C° 0 mm 3 m/s 752 mmHg 39%
    13:00 +33°C° 0 mm 3 m/s 752 mmHg 39%
    14:00 +31°C° 0 mm 3 m/s 752 mmHg 40%
    15:00 +30°C° 0.1 mm 3 m/s 752 mmHg 44%
    16:00 +29°C° 0.1 mm 2 m/s 751 mmHg 47%
    17:00 +28°C° 0.1 mm 2 m/s 751 mmHg 51%
    18:00 +27°C° 0.3 mm 2 m/s 751 mmHg 54%
    19:00 +26°C° 0.3 mm 2 m/s 751 mmHg 58%
    20:00 +25°C° 0.3 mm 1 m/s 751 mmHg 62%
    21:00 +24°C° 0.1 mm 1 m/s 751 mmHg 64%
    22:00 +24°C° 0.1 mm 1 m/s 751 mmHg 67%
    23:00 +23°C° 0.1 mm 1 m/s 751 mmHg 70%
    Voir plus